Regional Weather Roundup
Issued by NWS

Home | Current Version | Previous Version | Graphics & Text | Print | Product List | Glossary On
Versions: 1 2 3 4 5 6 7 8 9 10 11 12 13 14 15 16 17 18 19 20 21 22 23 24 25 26 27 28 29 30 31 32 33 34 35 36 37 38 39 40 41 42 43 44 45 46 47 48 49 50
061
ASUS43 KLMK 051102
RWRKY
KENTUCKY REGIONAL WEATHER ROUNDUP
NATIONAL WEATHER SERVICE LOUISVILLE KY
600 AM EST MON DEC 05 2016

NOTE "FAIR" INDICATES FEW OR NO CLOUDS BELOW 12,000 FEET
WITH NO SIGNIFICANT WEATHER AND/OR OBSTRUCTIONS TO VISIBILITY.

KYZ001>023-026-027-061>063-070>075-051200-
WESTERN AND SOUTH CENTRAL KENTUCKY

CITY           SKY/WX    TMP DP  RH WIND       PRES   REMARKS
PADUCAH        CLOUDY    39  33  79 NE5       30.05F
HENDERSON      CLOUDY    37  30  75 CALM      30.08F
OWENSBORO      CLOUDY    39  33  79 CALM      30.09F
HOPKINSVILLE   CLOUDY    40  36  87 N10       30.05F WCI  33
BOWLING GREEN  CLOUDY    41  35  79 N5        30.08S
GLASGOW        NOT AVBL
$$

KYZ024-025-028>034-038-045-046-053-051200-
NORTH CENTRAL KENTUCKY

CITY           SKY/WX    TMP DP  RH WIND       PRES   REMARKS
LOUISVILLE/SDF CLOUDY    40  32  73 W6        30.09R
LOUISVILLE/LOU CLOUDY    40  33  76 NW5       30.10R
FORT KNOX      CLOUDY    38  32  80 W3        30.07R
$$

KYZ035>037-039>044-047>052-055>060-089>105-051200-
NORTHEAST KENTUCKY

CITY           SKY/WX    TMP DP  RH WIND       PRES   REMARKS
LEXINGTON      CLOUDY    41  35  79 NW7       30.07S
COVINGTON      CLOUDY    37  33  85 NW7       30.06R WCI  32
FRANKFORT      CLOUDY    40  35  83 NW6       30.07R
$$

KYZ054-064>069-076>088-106>120-051200-
SOUTHEAST KENTUCKY

CITY           SKY/WX    TMP DP  RH WIND       PRES   REMARKS
JACKSON        CLOUDY    43  40  89 NW5       30.04S
LONDON         CLOUDY    44  40  85 NW6       30.04S
SOMERSET       CLOUDY    43  41  93 CALM      30.07S
MIDDLESBORO    CLOUDY    46  46  99 CALM      30.03S
MONTICELLO     CLOUDY    43  41  93 N15       30.07S
$$





USA.gov is the U.S. government's official web portal to all federal, state and local government web resources and services.